Time,TemperatureF,DewpointF,PressureIn,WindDirection,WindDirectionDegrees,WindSpeedMPH,WindSpeedGustMPH,Humidity,HourlyPrecipIn,Conditions,Clouds,dailyrainin,SoftwareType,DateUTC
2013-06-19 00:01:00,62.0,29.0,-100.00,NNW,332,5.0,12.0,29,-99.99,,,-99.99,,2013-06-19 07:01:00,
2013-06-19 00:11:00,62.0,29.0,-100.00,North,354,8.0,11.0,28,-99.99,,,-99.99,,2013-06-19 07:11:00,
2013-06-19 00:22:00,61.0,31.0,-100.00,West,279,1.0,6.0,32,-99.99,,,-99.99,,2013-06-19 07:22:00,
2013-06-19 00:33:00,61.0,29.0,-100.00,NW,314,4.0,9.0,30,-99.99,,,-99.99,,2013-06-19 07:33:00,
2013-06-19 00:43:00,62.0,27.0,-100.00,NNW,338,7.0,11.0,26,-99.99,,,-99.99,,2013-06-19 07:43:00,
2013-06-19 00:53:00,62.0,27.0,-100.00,NNW,338,7.0,11.0,26,-99.99,,,-99.99,,2013-06-19 07:53:00,
2013-06-19 01:01:00,62.0,26.0,-100.00,NNW,345,9.0,13.0,25,-99.99,,,-99.99,,2013-06-19 08:01:00,
2013-06-19 01:11:00,62.0,29.0,-100.00,WNW,303,5.0,12.0,28,-99.99,,,-99.99,,2013-06-19 08:11:00,
2013-06-19 01:22:00,57.0,34.0,-100.00,SSW,212,1.0,3.0,42,-99.99,,,-99.99,,2013-06-19 08:22:00,
2013-06-19 01:33:00,59.0,31.0,-100.00,South,185,3.0,7.0,34,-99.99,,,-99.99,,2013-06-19 08:33:00,
2013-06-19 01:43:00,60.0,29.0,-100.00,SSW,204,1.0,4.0,31,-99.99,,,-99.99,,2013-06-19 08:43:00,
2013-06-19 01:53:00,60.0,28.0,-100.00,SSW,212,3.0,5.0,30,-99.99,,,-99.99,,2013-06-19 08:53:00,
2013-06-19 02:02:00,60.0,28.0,-100.00,SW,215,2.0,5.0,30,-99.99,,,-99.99,,2013-06-19 09:02:00,
2013-06-19 02:11:00,60.0,28.0,-100.00,SW,215,2.0,5.0,30,-99.99,,,-99.99,,2013-06-19 09:11:00,
2013-06-19 02:22:00,58.0,26.0,-100.00,SW,231,2.0,4.0,29,-99.99,,,-99.99,,2013-06-19 09:22:00,
2013-06-19 02:34:00,56.0,31.0,-100.00,SSE,166,1.0,4.0,38,-99.99,,,-99.99,,2013-06-19 09:34:00,
2013-06-19 02:43:00,55.0,29.0,-100.00,NE,38,1.0,3.0,37,-99.99,,,-99.99,,2013-06-19 09:43:00,
2013-06-19 02:53:00,55.0,29.0,-100.00,NE,38,1.0,3.0,37,-99.99,,,-99.99,,2013-06-19 09:53:00,
2013-06-19 03:01:00,55.0,29.0,-100.00,North,11,1.0,2.0,36,-99.99,,,-99.99,,2013-06-19 10:01:00,
2013-06-19 03:11:00,54.0,27.0,-100.00,NNE,31,1.0,4.0,35,-99.99,,,-99.99,,2013-06-19 10:11:00,
2013-06-19 03:22:00,55.0,27.0,-100.00,NE,40,1.0,2.0,34,-99.99,,,-99.99,,2013-06-19 10:22:00,
2013-06-19 03:33:00,55.0,27.0,-100.00,North,356,1.0,3.0,34,-99.99,,,-99.99,,2013-06-19 10:33:00,
2013-06-19 03:42:00,54.0,24.0,-100.00,NNE,17,2.0,4.0,31,-99.99,,,-99.99,,2013-06-19 10:42:00,
2013-06-19 03:52:00,53.0,24.0,-100.00,NNE,17,2.0,3.0,32,-99.99,,,-99.99,,2013-06-19 10:52:00,
2013-06-19 04:02:00,51.0,24.0,-100.00,NNE,28,2.0,4.0,34,-99.99,,,-99.99,,2013-06-19 11:02:00,
2013-06-19 04:11:00,51.0,24.0,-100.00,NNE,28,2.0,4.0,34,-99.99,,,-99.99,,2013-06-19 11:11:00,
2013-06-19 04:22:00,51.0,23.0,-100.00,NNE,15,2.0,3.0,33,-99.99,,,-99.99,,2013-06-19 11:22:00,
2013-06-19 04:33:00,52.0,26.0,-100.00,NNE,27,2.0,4.0,36,-99.99,,,-99.99,,2013-06-19 11:33:00,
2013-06-19 04:42:00,51.0,24.0,-100.00,NNE,16,2.0,4.0,35,-99.99,,,-99.99,,2013-06-19 11:42:00,
2013-06-19 04:54:00,51.0,24.0,-100.00,NNE,16,2.0,4.0,35,-99.99,,,-99.99,,2013-06-19 11:54:00,
2013-06-19 05:01:00,50.0,24.0,-100.00,NNE,30,2.0,4.0,36,-99.99,,,-99.99,,2013-06-19 12:01:00,
2013-06-19 05:11:00,50.0,26.0,-100.00,NNE,12,2.0,4.0,39,-99.99,,,-99.99,,2013-06-19 12:11:00,
2013-06-19 05:22:00,51.0,27.0,-100.00,NE,42,2.0,4.0,39,-99.99,,,-99.99,,2013-06-19 12:22:00,
2013-06-19 05:34:00,49.0,27.0,-100.00,North,352,1.0,2.0,43,-99.99,,,-99.99,,2013-06-19 12:34:00,
2013-06-19 05:44:00,49.0,27.0,-100.00,NNE,19,2.0,2.0,43,-99.99,,,-99.99,,2013-06-19 12:44:00,
2013-06-19 05:52:00,49.0,27.0,-100.00,NNE,19,2.0,2.0,43,-99.99,,,-99.99,,2013-06-19 12:52:00,
2013-06-19 06:02:00,49.0,27.0,-100.00,NNE,25,2.0,3.0,42,-99.99,,,-99.99,,2013-06-19 13:02:00,
2013-06-19 06:11:00,49.0,26.0,-100.00,NNE,28,1.0,3.0,40,-99.99,,,-99.99,,2013-06-19 13:11:00,
2013-06-19 06:22:00,49.0,25.0,-100.00,NNE,18,1.0,2.0,39,-99.99,,,-99.99,,2013-06-19 13:22:00,
2013-06-19 06:33:00,49.0,25.0,-100.00,North,11,2.0,4.0,39,-99.99,,,-99.99,,2013-06-19 13:33:00,
2013-06-19 06:42:00,49.0,22.0,-100.00,NNE,13,3.0,4.0,34,-99.99,,,-99.99,,2013-06-19 13:42:00,
2013-06-19 06:53:00,49.0,22.0,-100.00,NNE,13,3.0,4.0,34,-99.99,,,-99.99,,2013-06-19 13:53:00,
2013-06-19 07:01:00,49.0,22.0,-100.00,NNE,13,3.0,4.0,34,-99.99,,,-99.99,,2013-06-19 14:01:00,
2013-06-19 07:11:00,50.0,22.0,-100.00,NNE,25,1.0,3.0,33,-99.99,,,-99.99,,2013-06-19 14:11:00,
2013-06-19 07:22:00,56.0,23.0,-100.00,NE,38,0.0,1.0,27,-99.99,,,-99.99,,2013-06-19 14:22:00,
2013-06-19 07:33:00,59.0,23.0,-100.00,NE,48,0.0,1.0,25,-99.99,,,-99.99,,2013-06-19 14:33:00,
2013-06-19 07:43:00,59.0,23.0,-100.00,SSE,162,1.0,2.0,25,-99.99,,,-99.99,,2013-06-19 14:43:00,
2013-06-19 07:52:00,59.0,23.0,-100.00,South,171,1.0,3.0,25,-99.99,,,-99.99,,2013-06-19 14:52:00,
2013-06-19 08:01:00,61.0,24.0,-100.00,SSE,161,0.0,1.0,24,-99.99,,,-99.99,,2013-06-19 15:01:00,
2013-06-19 08:11:00,61.0,24.0,-100.00,SSE,161,0.0,1.0,24,-99.99,,,-99.99,,2013-06-19 15:11:00,
2013-06-19 08:22:00,64.0,23.0,-100.00,ENE,74,0.0,1.0,21,-99.99,,,-99.99,,2013-06-19 15:22:00,
2013-06-19 08:33:00,66.0,20.0,-100.00,East,84,0.0,1.0,17,-99.99,,,-99.99,,2013-06-19 15:33:00,
2013-06-19 08:42:00,70.0,15.0,-100.00,South,171,1.0,3.0,12,-99.99,,,-99.99,,2013-06-19 15:42:00,
2013-06-19 08:53:00,70.0,19.0,-100.00,South,170,3.0,5.0,14,-99.99,,,-99.99,,2013-06-19 15:53:00,
2013-06-19 09:01:00,69.0,22.0,-100.00,South,178,5.0,8.0,17,-99.99,,,-99.99,,2013-06-19 16:01:00,
2013-06-19 09:11:00,69.0,22.0,-100.00,South,178,5.0,8.0,17,-99.99,,,-99.99,,2013-06-19 16:11:00,
2013-06-19 09:22:00,70.0,25.0,-100.00,South,186,6.0,9.0,18,-99.99,,,-99.99,,2013-06-19 16:22:00,
2013-06-19 09:33:00,72.0,22.0,-100.00,SSE,164,5.0,8.0,15,-99.99,,,-99.99,,2013-06-19 16:33:00,
2013-06-19 09:43:00,74.0,22.0,-100.00,SE,142,5.0,9.0,14,-99.99,,,-99.99,,2013-06-19 16:43:00,
2013-06-19 09:52:00,74.0,22.0,-100.00,SE,142,5.0,9.0,14,-99.99,,,-99.99,,2013-06-19 16:52:00,
2013-06-19 10:02:00,75.0,23.0,-100.00,SE,144,6.0,9.0,14,-99.99,,,-99.99,,2013-06-19 17:02:00,
2013-06-19 10:11:00,76.0,22.0,-100.00,SSE,155,5.0,8.0,13,-99.99,,,-99.99,,2013-06-19 17:11:00,
2013-06-19 10:22:00,76.0,20.0,-100.00,SE,141,8.0,16.0,12,-99.99,,,-99.99,,2013-06-19 17:22:00,
2013-06-19 10:33:00,78.0,21.0,-100.00,SE,142,7.0,14.0,12,-99.99,,,-99.99,,2013-06-19 17:33:00,
2013-06-19 10:43:00,80.0,19.0,-100.00,SW,234,5.0,11.0,10,-99.99,,,-99.99,,2013-06-19 17:43:00,
2013-06-19 10:53:00,81.0,17.0,-100.00,West,277,5.0,11.0,9,-99.99,,,-99.99,,2013-06-19 17:53:00,
2013-06-19 11:01:00,81.0,17.0,-100.00,West,267,7.0,15.0,9,-99.99,,,-99.99,,2013-06-19 18:01:00,
2013-06-19 11:11:00,81.0,17.0,-100.00,West,267,7.0,15.0,9,-99.99,,,-99.99,,2013-06-19 18:11:00,
2013-06-19 11:23:00,81.0,19.0,-100.00,WNW,290,5.0,13.0,10,-99.99,,,-99.99,,2013-06-19 18:23:00,
2013-06-19 11:33:00,81.0,19.0,-100.00,WNW,290,5.0,13.0,10,-99.99,,,-99.99,,2013-06-19 18:33:00,
2013-06-19 11:43:00,81.0,19.0,-100.00,West,265,7.0,13.0,10,-99.99,,,-99.99,,2013-06-19 18:43:00,
2013-06-19 11:53:00,81.0,19.0,-100.00,West,265,7.0,13.0,10,-99.99,,,-99.99,,2013-06-19 18:53:00,
2013-06-19 12:01:00,81.0,24.0,-100.00,WNW,287,7.0,14.0,12,-99.99,,,-99.99,,2013-06-19 19:01:00,
2013-06-19 12:11:00,81.0,22.0,-100.00,WNW,283,9.0,14.0,11,-99.99,,,-99.99,,2013-06-19 19:11:00,
2013-06-19 12:22:00,81.0,26.0,-100.00,West,260,7.0,19.0,13,-99.99,,,-99.99,,2013-06-19 19:22:00,
2013-06-19 12:32:00,82.0,24.0,-100.00,West,264,9.0,17.0,12,-99.99,,,-99.99,,2013-06-19 19:32:00,
2013-06-19 12:43:00,83.0,21.0,-100.00,West,271,6.0,14.0,10,-99.99,,,-99.99,,2013-06-19 19:43:00,
2013-06-19 12:52:00,83.0,21.0,-100.00,WSW,252,8.0,16.0,10,-99.99,,,-99.99,,2013-06-19 19:52:00,
2013-06-19 13:02:00,83.0,21.0,-100.00,West,267,10.0,18.0,10,-99.99,,,-99.99,,2013-06-19 20:02:00,
2013-06-19 13:11:00,83.0,21.0,-100.00,West,267,10.0,18.0,10,-99.99,,,-99.99,,2013-06-19 20:11:00,
2013-06-19 13:22:00,82.0,24.0,-100.00,West,276,9.0,15.0,12,-99.99,,,-99.99,,2013-06-19 20:22:00,
2013-06-19 13:33:00,83.0,25.0,-100.00,West,274,10.0,16.0,12,-99.99,,,-99.99,,2013-06-19 20:33:00,
2013-06-19 13:42:00,82.0,26.0,-100.00,West,268,11.0,19.0,13,-99.99,,,-99.99,,2013-06-19 20:42:00,
2013-06-19 13:52:00,82.0,26.0,-100.00,West,268,11.0,19.0,13,-99.99,,,-99.99,,2013-06-19 20:52:00,
2013-06-19 14:02:00,83.0,21.0,-100.00,NW,321,6.0,12.0,10,-99.99,,,-99.99,,2013-06-19 21:02:00,
2013-06-19 14:11:00,83.0,21.0,-100.00,NW,321,6.0,12.0,10,-99.99,,,-99.99,,2013-06-19 21:11:00,
2013-06-19 14:22:00,83.0,16.0,-100.00,WNW,300,7.0,14.0,8,-99.99,,,-99.99,,2013-06-19 21:22:00,
2013-06-19 14:44:00,83.0,16.0,-100.00,West,275,9.0,16.0,8,-99.99,,,-99.99,,2013-06-19 21:44:00,
2013-06-19 15:11:00,83.0,23.0,-100.00,WNW,283,11.0,19.0,11,-99.99,,,-99.99,,2013-06-19 22:11:00,
2013-06-19 15:22:00,83.0,25.0,-100.00,WNW,297,8.0,16.0,12,-99.99,,,-99.99,,2013-06-19 22:22:00,
2013-06-19 15:34:00,83.0,27.0,-100.00,WNW,284,11.0,25.0,13,-99.99,,,-99.99,,2013-06-19 22:34:00,
2013-06-19 15:42:00,82.0,31.0,-100.00,WNW,289,10.0,18.0,16,-99.99,,,-99.99,,2013-06-19 22:42:00,
2013-06-19 15:53:00,83.0,29.0,-100.00,NW,322,9.0,18.0,14,-99.99,,,-99.99,,2013-06-19 22:53:00,
2013-06-19 16:02:00,82.0,30.0,-100.00,NW,305,11.0,16.0,15,-99.99,,,-99.99,,2013-06-19 23:02:00,
2013-06-19 16:12:00,82.0,30.0,-100.00,NW,305,11.0,16.0,15,-99.99,,,-99.99,,2013-06-19 23:12:00,
2013-06-19 16:22:00,81.0,32.0,-100.00,WNW,294,9.0,15.0,17,-99.99,,,-99.99,,2013-06-19 23:22:00,
2013-06-19 16:33:00,82.0,33.0,-100.00,NW,322,10.0,16.0,17,-99.99,,,-99.99,,2013-06-19 23:33:00,
2013-06-19 16:43:00,80.0,34.0,-100.00,WNW,299,11.0,15.0,19,-99.99,,,-99.99,,2013-06-19 23:43:00,
2013-06-19 16:52:00,80.0,34.0,-100.00,WNW,299,11.0,15.0,19,-99.99,,,-99.99,,2013-06-19 23:52:00,
2013-06-19 17:01:00,80.0,34.0,-100.00,WNW,295,10.0,19.0,19,-99.99,,,-99.99,,2013-06-20 00:01:00,
2013-06-19 17:11:00,80.0,35.0,-100.00,WNW,284,11.0,19.0,20,-99.99,,,-99.99,,2013-06-20 00:11:00,
2013-06-19 17:22:00,80.0,35.0,-100.00,West,278,9.0,17.0,20,-99.99,,,-99.99,,2013-06-20 00:22:00,
2013-06-19 17:33:00,79.0,33.0,-100.00,West,277,10.0,17.0,19,-99.99,,,-99.99,,2013-06-20 00:33:00,
2013-06-19 17:43:00,79.0,32.0,-100.00,West,273,9.0,14.0,18,-99.99,,,-99.99,,2013-06-20 00:43:00,
2013-06-19 17:52:00,79.0,32.0,-100.00,West,273,9.0,14.0,18,-99.99,,,-99.99,,2013-06-20 00:52:00,
2013-06-19 18:01:00,79.0,34.0,-100.00,NW,318,8.0,13.0,20,-99.99,,,-99.99,,2013-06-20 01:01:00,
2013-06-19 18:11:00,79.0,36.0,-100.00,WNW,298,8.0,13.0,21,-99.99,,,-99.99,,2013-06-20 01:11:00,
2013-06-19 18:22:00,77.0,34.0,-100.00,WNW,298,9.0,15.0,21,-99.99,,,-99.99,,2013-06-20 01:22:00,
2013-06-19 18:33:00,77.0,35.0,-100.00,WNW,295,9.0,12.0,22,-99.99,,,-99.99,,2013-06-20 01:33:00,
2013-06-19 18:44:00,77.0,35.0,-100.00,NW,304,8.0,11.0,22,-99.99,,,-99.99,,2013-06-20 01:44:00,
2013-06-19 18:52:00,77.0,35.0,-100.00,NW,304,8.0,11.0,22,-99.99,,,-99.99,,2013-06-20 01:52:00,
2013-06-19 19:02:00,77.0,35.0,-100.00,NW,320,6.0,11.0,22,-99.99,,,-99.99,,2013-06-20 02:02:00,
2013-06-19 19:11:00,77.0,37.0,-100.00,NW,311,6.0,9.0,24,-99.99,,,-99.99,,2013-06-20 02:11:00,
2013-06-19 19:23:00,76.0,37.0,-100.00,NW,317,6.0,10.0,24,-99.99,,,-99.99,,2013-06-20 02:23:00,
2013-06-19 19:33:00,74.0,38.0,-100.00,WNW,294,4.0,8.0,27,-99.99,,,-99.99,,2013-06-20 02:33:00,
2013-06-19 19:43:00,73.0,38.0,-100.00,WNW,287,3.0,5.0,28,-99.99,,,-99.99,,2013-06-20 02:43:00,
2013-06-19 19:52:00,73.0,38.0,-100.00,WNW,287,3.0,5.0,28,-99.99,,,-99.99,,2013-06-20 02:52:00,
2013-06-19 20:02:00,72.0,39.0,-100.00,WNW,291,4.0,6.0,30,-99.99,,,-99.99,,2013-06-20 03:02:00,
2013-06-19 20:11:00,71.0,41.0,-100.00,WNW,293,4.0,7.0,34,-99.99,,,-99.99,,2013-06-20 03:11:00,
2013-06-19 20:22:00,70.0,43.0,-100.00,NNE,33,1.0,3.0,37,-99.99,,,-99.99,,2013-06-20 03:22:00,
2013-06-19 20:33:00,69.0,44.0,-100.00,NW,310,1.0,2.0,40,-99.99,,,-99.99,,2013-06-20 03:33:00,
2013-06-19 20:43:00,68.0,43.0,-100.00,South,183,1.0,2.0,41,-99.99,,,-99.99,,2013-06-20 03:43:00,
2013-06-19 20:53:00,67.0,43.0,-100.00,South,175,1.0,3.0,42,-99.99,,,-99.99,,2013-06-20 03:53:00,
2013-06-19 21:01:00,67.0,43.0,-100.00,South,175,1.0,3.0,42,-99.99,,,-99.99,,2013-06-20 04:01:00,
2013-06-19 21:11:00,66.0,42.0,-100.00,SSE,158,1.0,4.0,41,-99.99,,,-99.99,,2013-06-20 04:11:00,
2013-06-19 21:22:00,65.0,37.0,-100.00,West,280,1.0,3.0,35,-99.99,,,-99.99,,2013-06-20 04:22:00,
2013-06-19 21:33:00,65.0,38.0,-100.00,WSW,254,3.0,5.0,37,-99.99,,,-99.99,,2013-06-20 04:33:00,
2013-06-19 21:43:00,65.0,35.0,-100.00,WSW,257,2.0,4.0,33,-99.99,,,-99.99,,2013-06-20 04:43:00,
2013-06-19 21:53:00,64.0,36.0,-100.00,WSW,251,2.0,4.0,35,-99.99,,,-99.99,,2013-06-20 04:53:00,
2013-06-19 22:01:00,64.0,36.0,-100.00,WSW,251,2.0,4.0,35,-99.99,,,-99.99,,2013-06-20 05:01:00,
2013-06-19 22:12:00,63.0,33.0,-100.00,WNW,298,4.0,9.0,32,-99.99,,,-99.99,,2013-06-20 05:12:00,
2013-06-19 22:22:00,62.0,27.0,-100.00,NW,305,4.0,7.0,26,-99.99,,,-99.99,,2013-06-20 05:22:00,
2013-06-19 22:33:00,61.0,29.0,-100.00,NNW,331,3.0,8.0,29,-99.99,,,-99.99,,2013-06-20 05:33:00,
2013-06-19 22:44:00,60.0,28.0,-100.00,NNW,333,2.0,5.0,30,-99.99,,,-99.99,,2013-06-20 05:44:00,
2013-06-19 22:52:00,60.0,28.0,-100.00,NNW,333,2.0,5.0,30,-99.99,,,-99.99,,2013-06-20 05:52:00,
2013-06-19 23:01:00,58.0,27.0,-100.00,WNW,301,1.0,3.0,30,-99.99,,,-99.99,,2013-06-20 06:01:00,
2013-06-19 23:11:00,60.0,22.0,-100.00,WNW,286,4.0,8.0,23,-99.99,,,-99.99,,2013-06-20 06:11:00,
2013-06-19 23:33:00,60.0,20.0,-100.00,NW,304,4.0,7.0,21,-99.99,,,-99.99,,2013-06-20 06:33:00,
2013-06-19 23:43:00,58.0,21.0,-100.00,North,351,2.0,4.0,24,-99.99,,,-99.99,,2013-06-20 06:43:00,
2013-06-19 23:53:00,58.0,21.0,-100.00,North,351,2.0,4.0,24,-99.99,,,-99.99,,2013-06-20 06:53:00,